TimeEST,TemperatureF,Dew PointF,Humidity,Sea Level PressureIn,VisibilityMPH,Wind Direction,Wind SpeedMPH,Gust SpeedMPH,PrecipitationIn,Events,Conditions,WindDirDegrees,DateUTC
12:15 AM,29.7,22.1,73,30.39,10.0,North,18.4,24.2,N/A,,Overcast,350,2013-11-12 05:15:00
12:34 AM,29.8,21.9,72,30.40,10.0,North,17.3,21.9,N/A,,Overcast,350,2013-11-12 05:34:00
12:54 AM,30.0,22.8,75,30.41,10.0,North,13.8,23.0,N/A,,Overcast,350,2013-11-12 05:54:00
1:15 AM,30.0,22.3,73,30.41,10.0,North,16.1,25.3,N/A,,Overcast,350,2013-11-12 06:15:00
1:34 AM,30.2,22.8,74,30.41,10.0,North,18.4,26.5,N/A,,Overcast,360,2013-11-12 06:34:00
1:55 AM,30.6,22.8,73,30.42,10.0,NNW,21.9,29.9,N/A,Snow,Light Snow,330,2013-11-12 06:55:00
2:14 AM,30.6,22.8,73,30.42,10.0,NNW,17.3,26.5,N/A,,Mostly Cloudy,330,2013-11-12 07:14:00
2:34 AM,30.6,23.0,74,30.43,10.0,NNW,16.1,27.6,N/A,,Overcast,330,2013-11-12 07:34:00
2:55 AM,30.7,23.2,74,30.44,7.0,NNW,17.3,24.2,N/A,Snow,Light Snow,330,2013-11-12 07:55:00
3:14 AM,30.6,22.5,72,30.44,10.0,NW,20.7,27.6,N/A,,Overcast,320,2013-11-12 08:14:00
3:34 AM,30.2,22.1,72,30.45,10.0,NW,23.0,31.1,N/A,,Overcast,310,2013-11-12 08:34:00
3:55 AM,30.2,20.5,67,30.46,10.0,NNW,20.7,29.9,N/A,,Overcast,330,2013-11-12 08:55:00
4:14 AM,29.8,18.9,64,30.47,10.0,NNW,18.4,29.9,N/A,,Overcast,340,2013-11-12 09:14:00
4:34 AM,29.3,18.9,65,30.48,10.0,NNW,15.0,28.8,N/A,,Overcast,330,2013-11-12 09:34:00
4:55 AM,29.1,20.1,69,30.49,10.0,NW,19.6,29.9,N/A,,Overcast,320,2013-11-12 09:55:00
5:14 AM,28.8,18.7,66,30.50,10.0,NW,19.6,32.2,N/A,,Overcast,320,2013-11-12 10:14:00
5:35 AM,28.4,18.3,66,30.50,10.0,NW,16.1,26.5,N/A,,Overcast,320,2013-11-12 10:35:00
5:55 AM,28.2,17.8,65,30.51,10.0,NNW,21.9,29.9,N/A,,Overcast,330,2013-11-12 10:55:00
6:14 AM,28.8,18.7,66,30.51,10.0,NW,20.7,29.9,N/A,,Overcast,310,2013-11-12 11:14:00
6:35 AM,28.2,16.5,62,30.51,10.0,NW,18.4,31.1,N/A,,Overcast,320,2013-11-12 11:35:00
6:54 AM,28.2,17.2,63,30.51,10.0,NW,21.9,29.9,N/A,,Overcast,310,2013-11-12 11:54:00
7:15 AM,28.2,16.7,62,30.52,10.0,NW,19.6,29.9,N/A,,Overcast,320,2013-11-12 12:15:00
7:35 AM,28.2,17.1,63,30.52,10.0,NW,20.7,31.1,N/A,,Overcast,310,2013-11-12 12:35:00
7:54 AM,28.0,16.9,63,30.52,10.0,NNW,15.0,29.9,N/A,,Overcast,330,2013-11-12 12:54:00
8:15 AM,28.2,17.1,63,30.53,10.0,NNW,13.8,27.6,N/A,,Overcast,340,2013-11-12 13:15:00
8:35 AM,28.2,17.2,63,30.53,10.0,NNW,17.3,25.3,N/A,,Overcast,340,2013-11-12 13:35:00
8:54 AM,27.9,16.2,62,30.54,10.0,NNW,15.0,26.5,N/A,,Overcast,340,2013-11-12 13:54:00
9:15 AM,28.2,16.9,63,30.54,10.0,NNW,18.4,26.5,N/A,,Overcast,340,2013-11-12 14:15:00
9:34 AM,28.2,17.8,65,30.54,10.0,NNW,16.1,26.5,N/A,,Overcast,330,2013-11-12 14:34:00
9:54 AM,28.4,18.5,66,30.55,10.0,NNW,16.1,26.5,N/A,,Overcast,330,2013-11-12 14:54:00
10:15 AM,28.0,18.9,68,30.55,7.0,NW,18.4,27.6,N/A,Snow,Light Snow,320,2013-11-12 15:15:00
10:34 AM,28.2,18.9,68,30.55,10.0,NNW,13.8,20.7,N/A,,Overcast,330,2013-11-12 15:34:00
10:54 AM,27.9,18.0,66,30.55,10.0,NNW,17.3,26.5,N/A,Snow,Light Snow,330,2013-11-12 15:54:00
11:15 AM,28.2,17.6,64,30.55,10.0,NNW,15.0,25.3,N/A,Snow,Light Snow,340,2013-11-12 16:15:00
11:34 AM,28.0,19.6,71,30.55,5.0,NW,16.1,25.3,N/A,Snow,Light Snow,320,2013-11-12 16:34:00
11:54 AM,28.0,20.3,73,30.55,7.0,NW,16.1,21.9,N/A,Snow,Light Snow,320,2013-11-12 16:54:00
12:15 PM,27.9,18.7,68,30.55,7.0,NW,15.0,24.2,N/A,Snow,Light Snow,320,2013-11-12 17:15:00
12:34 PM,28.2,18.1,66,30.54,10.0,NNW,11.5,21.9,N/A,,Overcast,330,2013-11-12 17:34:00
12:55 PM,28.4,18.5,66,30.54,10.0,NW,16.1,21.9,N/A,Snow,Light Snow,310,2013-11-12 17:55:00
1:15 PM,28.8,19.8,69,30.54,10.0,NW,12.7,21.9,N/A,,Overcast,320,2013-11-12 18:15:00
1:34 PM,28.4,18.1,65,30.53,10.0,NW,17.3,23.0,N/A,,Overcast,310,2013-11-12 18:34:00
1:55 PM,28.8,18.3,65,30.54,10.0,NW,17.3,23.0,N/A,,Overcast,320,2013-11-12 18:55:00
2:15 PM,29.1,19.0,66,30.53,10.0,NNW,12.7,19.6,N/A,,Overcast,340,2013-11-12 19:15:00
2:34 PM,28.9,20.1,70,30.52,10.0,NW,15.0,19.6,N/A,Snow,Light Snow,320,2013-11-12 19:34:00
2:55 PM,28.6,18.7,66,30.52,10.0,NW,10.4,16.1,N/A,,Overcast,320,2013-11-12 19:55:00
3:14 PM,28.9,19.0,67,30.51,10.0,NW,12.7,18.4,N/A,,Overcast,310,2013-11-12 20:14:00
3:35 PM,29.1,18.1,64,30.51,10.0,WNW,15.0,18.4,N/A,,Overcast,300,2013-11-12 20:35:00
3:55 PM,29.1,17.6,62,30.51,10.0,NW,12.7,18.4,N/A,,Overcast,320,2013-11-12 20:55:00
4:14 PM,29.1,18.0,63,30.51,10.0,NNW,10.4,16.1,N/A,,Overcast,340,2013-11-12 21:14:00
4:35 PM,29.3,18.3,64,30.51,10.0,WNW,15.0,20.7,N/A,,Overcast,300,2013-11-12 21:35:00
4:54 PM,28.9,16.5,60,30.52,10.0,WNW,12.7,18.4,N/A,,Mostly Cloudy,300,2013-11-12 21:54:00
5:14 PM,29.3,17.6,62,30.52,10.0,WNW,12.7,-,N/A,,Mostly Cloudy,300,2013-11-12 22:14:00
5:35 PM,29.3,18.1,63,30.52,10.0,West,10.4,17.3,N/A,,Overcast,270,2013-11-12 22:35:00
5:54 PM,29.1,17.4,62,30.51,10.0,West,10.4,-,N/A,,Overcast,280,2013-11-12 22:54:00
6:14 PM,29.3,16.7,59,30.51,10.0,WNW,12.7,-,N/A,,Scattered Clouds,290,2013-11-12 23:14:00
6:34 PM,29.7,17.4,60,30.50,10.0,West,12.7,-,N/A,,Mostly Cloudy,270,2013-11-12 23:34:00
6:54 PM,30.2,18.3,61,30.49,10.0,WSW,6.9,-,N/A,,Overcast,250,2013-11-12 23:54:00
7:15 PM,30.2,18.1,61,30.49,10.0,West,8.1,-,N/A,,Mostly Cloudy,280,2013-11-13 00:15:00
7:34 PM,30.2,18.7,62,30.48,10.0,West,8.1,-,N/A,,Mostly Cloudy,260,2013-11-13 00:34:00
7:54 PM,30.9,18.5,60,30.47,10.0,West,11.5,-,N/A,,Mostly Cloudy,260,2013-11-13 00:54:00
8:15 PM,31.3,19.2,61,30.47,10.0,West,15.0,20.7,N/A,,Mostly Cloudy,270,2013-11-13 01:15:00
8:34 PM,31.6,18.7,59,30.47,10.0,West,13.8,20.7,N/A,,Mostly Cloudy,280,2013-11-13 01:34:00
8:54 PM,31.6,18.7,59,30.46,10.0,West,15.0,20.7,N/A,,Mostly Cloudy,260,2013-11-13 01:54:00
9:15 PM,32.0,19.9,61,30.46,10.0,West,13.8,-,N/A,,Mostly Cloudy,260,2013-11-13 02:15:00
9:34 PM,32.0,18.9,58,30.45,10.0,West,18.4,23.0,N/A,,Mostly Cloudy,270,2013-11-13 02:34:00
9:55 PM,32.0,19.2,59,30.45,10.0,West,16.1,20.7,N/A,,Mostly Cloudy,260,2013-11-13 02:55:00
10:15 PM,32.0,18.5,58,30.45,10.0,WNW,13.8,20.7,N/A,,Mostly Cloudy,290,2013-11-13 03:15:00
10:34 PM,32.0,19.4,60,30.44,10.0,West,12.7,-,N/A,,Scattered Clouds,260,2013-11-13 03:34:00
10:55 PM,32.0,17.1,54,30.44,10.0,WNW,13.8,-,N/A,,Scattered Clouds,290,2013-11-13 03:55:00
11:14 PM,32.0,17.1,54,30.43,10.0,West,12.7,-,N/A,,Clear,280,2013-11-13 04:14:00
11:34 PM,32.0,18.0,56,30.43,10.0,West,12.7,18.4,N/A,,Clear,280,2013-11-13 04:34:00
11:55 PM,32.0,17.2,55,30.43,10.0,West,10.4,19.6,N/A,,Clear,280,2013-11-13 04:55:00